Time,TemperatureF,DewpointF,PressureIn,WindDirection,WindDirectionDegrees,WindSpeedMPH,WindSpeedGustMPH,Humidity,HourlyPrecipIn,Conditions,Clouds,dailyrainin,SolarRadiationWatts/m^2,SoftwareType,DateUTC
2013-05-15 00:03:00,62.0,58.0,-100.00,ENE,69,1.0,2.0,86,0.00,,,-99.99,0.000000,,2013-05-15 04:03:00,
2013-05-15 00:11:00,59.0,56.0,-100.00,ESE,107,0.0,2.0,90,0.00,,,0.00,0.000000,,2013-05-15 04:11:00,
2013-05-15 00:33:00,59.0,56.0,-100.00,ESE,107,0.0,2.0,90,0.00,,,0.00,0.000000,,2013-05-15 04:33:00,
2013-05-15 00:43:00,59.0,56.0,-100.00,ESE,107,0.0,2.0,90,0.00,,,0.00,0.000000,,2013-05-15 04:43:00,
2013-05-15 00:52:00,59.0,56.0,-100.00,ESE,107,0.0,2.0,90,0.00,,,0.00,0.000000,,2013-05-15 04:52:00,
2013-05-15 01:02:00,59.0,56.0,-100.00,ESE,107,0.0,2.0,90,0.00,,,0.00,0.000000,,2013-05-15 05:02:00,
2013-05-15 01:11:00,58.0,56.0,-100.00,North,9,0.0,2.0,92,0.00,,,0.00,0.000000,,2013-05-15 05:11:00,
2013-05-15 01:42:00,58.0,56.0,-100.00,North,9,0.0,2.0,92,0.00,,,0.00,0.000000,,2013-05-15 05:42:00,
2013-05-15 01:52:00,58.0,56.0,-100.00,North,9,0.0,2.0,92,0.00,,,0.00,0.000000,,2013-05-15 05:52:00,
2013-05-15 02:02:00,58.0,56.0,-100.00,North,9,0.0,2.0,92,0.00,,,0.00,0.000000,,2013-05-15 06:02:00,
2013-05-15 02:11:00,57.0,55.0,-100.00,NNE,29,0.0,2.0,93,0.00,,,0.00,0.000000,,2013-05-15 06:11:00,
2013-05-15 02:32:00,57.0,55.0,-100.00,NNE,29,0.0,2.0,93,0.00,,,0.00,0.000000,,2013-05-15 06:32:00,
2013-05-15 02:42:00,57.0,55.0,-100.00,NNE,29,0.0,2.0,93,0.00,,,0.00,0.000000,,2013-05-15 06:42:00,
2013-05-15 02:52:00,57.0,55.0,-100.00,NNE,29,0.0,2.0,93,0.00,,,0.00,0.000000,,2013-05-15 06:52:00,
2013-05-15 03:01:00,57.0,55.0,-100.00,NNE,29,0.0,2.0,93,0.00,,,0.00,0.000000,,2013-05-15 07:01:00,
2013-05-15 03:11:00,56.0,55.0,-100.00,NNE,14,0.0,0.0,95,0.00,,,-99.99,0.000000,,2013-05-15 07:11:00,
2013-05-15 03:32:00,56.0,55.0,-100.00,NNE,14,0.0,0.0,95,0.00,,,-99.99,0.000000,,2013-05-15 07:32:00,
2013-05-15 03:42:00,56.0,55.0,-100.00,NNE,14,0.0,0.0,95,0.00,,,-99.99,0.000000,,2013-05-15 07:42:00,
2013-05-15 03:52:00,56.0,55.0,-100.00,NNE,14,0.0,0.0,95,0.00,,,-99.99,0.000000,,2013-05-15 07:52:00,
2013-05-15 04:02:00,56.0,55.0,-100.00,NNE,14,0.0,0.0,95,0.00,,,-99.99,0.000000,,2013-05-15 08:02:00,
2013-05-15 04:11:00,55.0,54.0,-100.00,NNE,17,0.0,0.0,95,0.00,,,0.00,0.000000,,2013-05-15 08:11:00,
2013-05-15 04:32:00,55.0,54.0,-100.00,NNE,17,0.0,0.0,95,0.00,,,0.00,0.000000,,2013-05-15 08:32:00,
2013-05-15 04:42:00,55.0,54.0,-100.00,NNE,17,0.0,0.0,95,0.00,,,0.00,0.000000,,2013-05-15 08:42:00,
2013-05-15 04:53:00,55.0,54.0,-100.00,NNE,17,0.0,0.0,95,0.00,,,0.00,0.000000,,2013-05-15 08:53:00,
2013-05-15 05:01:00,55.0,54.0,-100.00,NNE,17,0.0,0.0,95,0.00,,,0.00,0.000000,,2013-05-15 09:01:00,
2013-05-15 05:11:00,53.0,52.0,-100.00,North,1,0.0,1.0,95,0.00,,,0.00,0.000000,,2013-05-15 09:11:00,
2013-05-15 05:33:00,53.0,52.0,-100.00,North,1,0.0,1.0,95,0.00,,,0.00,0.000000,,2013-05-15 09:33:00,
2013-05-15 05:42:00,53.0,52.0,-100.00,North,1,0.0,1.0,95,0.00,,,0.00,0.000000,,2013-05-15 09:42:00,
2013-05-15 05:53:00,53.0,52.0,-100.00,North,1,0.0,1.0,95,0.00,,,0.00,0.000000,,2013-05-15 09:53:00,
2013-05-15 06:02:00,53.0,52.0,-100.00,North,1,0.0,1.0,95,0.00,,,0.00,0.000000,,2013-05-15 10:02:00,
2013-05-15 06:11:00,53.0,52.0,-100.00,North,356,0.0,0.0,96,0.00,,,0.00,0.000000,,2013-05-15 10:11:00,
2013-05-15 06:32:00,53.0,52.0,-100.00,North,356,0.0,0.0,96,0.00,,,0.00,0.000000,,2013-05-15 10:32:00,
2013-05-15 06:43:00,53.0,52.0,-100.00,North,356,0.0,0.0,96,0.00,,,0.00,0.000000,,2013-05-15 10:43:00,
2013-05-15 06:53:00,53.0,52.0,-100.00,North,356,0.0,0.0,96,0.00,,,0.00,0.000000,,2013-05-15 10:53:00,
2013-05-15 07:11:00,53.0,52.0,-100.00,NNE,21,0.0,0.0,96,0.00,,,0.00,6.000000,,2013-05-15 11:11:00,
2013-05-15 07:40:00,53.0,52.0,-100.00,NNE,21,0.0,0.0,96,0.00,,,0.00,6.000000,,2013-05-15 11:40:00,
2013-05-15 07:50:00,53.0,52.0,-100.00,NNE,21,0.0,0.0,96,0.00,,,0.00,6.000000,,2013-05-15 11:50:00,
2013-05-15 08:02:00,53.0,52.0,-100.00,NNE,21,0.0,0.0,96,0.00,,,0.00,6.000000,,2013-05-15 12:02:00,
2013-05-15 08:11:00,61.0,60.0,-100.00,North,5,1.0,3.0,96,0.00,,,0.00,89.000000,,2013-05-15 12:11:00,
2013-05-15 08:38:00,61.0,60.0,-100.00,North,5,1.0,3.0,96,0.00,,,0.00,89.000000,,2013-05-15 12:38:00,
2013-05-15 08:49:00,61.0,60.0,-100.00,North,5,1.0,3.0,96,0.00,,,0.00,89.000000,,2013-05-15 12:49:00,
2013-05-15 08:58:00,61.0,60.0,-100.00,North,5,1.0,3.0,96,0.00,,,0.00,89.000000,,2013-05-15 12:58:00,
2013-05-15 10:11:00,79.0,59.0,-100.00,East,82,5.0,10.0,51,-99.99,,,0.00,530.000000,,2013-05-15 14:11:00,
2013-05-15 10:52:00,79.0,59.0,-100.00,East,82,5.0,10.0,51,-99.99,,,0.00,530.000000,,2013-05-15 14:52:00,
2013-05-15 10:59:00,79.0,59.0,-100.00,East,82,5.0,10.0,51,-99.99,,,0.00,530.000000,,2013-05-15 14:59:00,
2013-05-15 11:10:00,79.0,59.0,-100.00,East,82,5.0,10.0,51,-99.99,,,0.00,530.000000,,2013-05-15 15:10:00,
2013-05-15 11:11:00,82.0,60.0,-100.00,ENE,61,4.0,11.0,48,0.00,,,0.00,706.000000,,2013-05-15 15:11:00,
2013-05-15 11:49:00,82.0,60.0,-100.00,ENE,61,4.0,11.0,48,0.00,,,0.00,706.000000,,2013-05-15 15:49:00,
2013-05-15 12:02:00,82.0,60.0,-100.00,ENE,61,4.0,11.0,48,0.00,,,0.00,706.000000,,2013-05-15 16:02:00,
2013-05-15 12:10:00,82.0,60.0,-100.00,ENE,61,4.0,11.0,48,0.00,,,0.00,706.000000,,2013-05-15 16:10:00,
2013-05-15 12:11:00,84.0,60.0,-100.00,NNE,24,4.0,13.0,45,0.00,,,0.00,772.000000,,2013-05-15 16:11:00,
2013-05-15 12:52:00,84.0,60.0,-100.00,NNE,24,4.0,13.0,45,0.00,,,0.00,772.000000,,2013-05-15 16:52:00,
2013-05-15 13:01:00,84.0,60.0,-100.00,NNE,24,4.0,13.0,45,0.00,,,0.00,772.000000,,2013-05-15 17:01:00,
2013-05-15 13:11:00,86.0,59.0,-100.00,East,89,4.0,12.0,40,0.00,,,0.00,867.000000,,2013-05-15 17:11:00,
2013-05-15 13:49:00,86.0,59.0,-100.00,East,89,4.0,12.0,40,0.00,,,0.00,867.000000,,2013-05-15 17:49:00,
2013-05-15 13:59:00,86.0,59.0,-100.00,East,89,4.0,12.0,40,0.00,,,0.00,867.000000,,2013-05-15 17:59:00,
2013-05-15 14:07:00,86.0,59.0,-100.00,East,89,4.0,12.0,40,0.00,,,0.00,867.000000,,2013-05-15 18:07:00,
2013-05-15 14:11:00,86.0,58.0,-100.00,ENE,67,3.0,11.0,39,0.00,,,0.00,770.000000,,2013-05-15 18:11:00,
2013-05-15 14:49:00,86.0,58.0,-100.00,ENE,67,3.0,11.0,39,0.00,,,0.00,770.000000,,2013-05-15 18:49:00,
2013-05-15 14:58:00,86.0,58.0,-100.00,ENE,67,3.0,11.0,39,0.00,,,0.00,770.000000,,2013-05-15 18:58:00,
2013-05-15 15:09:00,86.0,58.0,-100.00,ENE,67,3.0,11.0,39,0.00,,,0.00,770.000000,,2013-05-15 19:09:00,
2013-05-15 15:11:00,86.0,56.0,-100.00,ENE,69,5.0,12.0,36,0.00,,,0.00,810.000000,,2013-05-15 19:11:00,
2013-05-15 15:59:00,86.0,56.0,-100.00,ENE,69,5.0,12.0,36,0.00,,,0.00,810.000000,,2013-05-15 19:59:00,
2013-05-15 16:09:00,86.0,56.0,-100.00,ENE,69,5.0,12.0,36,0.00,,,0.00,810.000000,,2013-05-15 20:09:00,
2013-05-15 16:47:00,86.0,56.0,-100.00,NE,51,5.0,12.0,36,0.00,,,0.00,627.000000,,2013-05-15 20:47:00,
2013-05-15 17:00:00,86.0,56.0,-100.00,NE,51,5.0,12.0,36,0.00,,,0.00,627.000000,,2013-05-15 21:00:00,
2013-05-15 17:09:00,86.0,56.0,-100.00,NE,51,5.0,12.0,36,0.00,,,0.00,627.000000,,2013-05-15 21:09:00,
2013-05-15 17:11:00,85.0,56.0,-100.00,ENE,73,5.0,11.0,37,0.00,,,-99.99,569.000000,,2013-05-15 21:11:00,
2013-05-15 17:42:00,85.0,56.0,-100.00,ENE,73,5.0,11.0,37,0.00,,,-99.99,569.000000,,2013-05-15 21:42:00,
2013-05-15 18:01:00,85.0,56.0,-100.00,ENE,73,5.0,11.0,37,0.00,,,-99.99,569.000000,,2013-05-15 22:01:00,
2013-05-15 18:11:00,84.0,55.0,-100.00,NE,53,4.0,11.0,37,0.00,,,0.00,368.000000,,2013-05-15 22:11:00,
2013-05-15 18:42:00,84.0,55.0,-100.00,NE,53,4.0,11.0,37,0.00,,,0.00,368.000000,,2013-05-15 22:42:00,
2013-05-15 18:53:00,84.0,55.0,-100.00,NE,53,4.0,11.0,37,0.00,,,0.00,368.000000,,2013-05-15 22:53:00,
2013-05-15 19:00:00,84.0,55.0,-100.00,NE,53,4.0,11.0,37,0.00,,,0.00,368.000000,,2013-05-15 23:00:00,
2013-05-15 19:09:00,84.0,55.0,-100.00,NE,53,4.0,11.0,37,0.00,,,0.00,368.000000,,2013-05-15 23:09:00,
2013-05-15 19:11:00,80.0,57.0,-100.00,ENE,71,4.0,10.0,46,0.00,,,0.00,166.000000,,2013-05-15 23:11:00,
2013-05-15 19:40:00,80.0,57.0,-100.00,ENE,71,4.0,10.0,46,0.00,,,0.00,166.000000,,2013-05-15 23:40:00,
2013-05-15 20:01:00,80.0,57.0,-100.00,ENE,71,4.0,10.0,46,0.00,,,0.00,166.000000,,2013-05-16 00:01:00,
2013-05-15 20:08:00,80.0,57.0,-100.00,ENE,71,4.0,10.0,46,0.00,,,0.00,166.000000,,2013-05-16 00:08:00,
2013-05-15 22:02:00,69.0,60.0,-100.00,East,84,1.0,4.0,73,-99.99,,,0.00,0.000000,,2013-05-16 02:02:00,
2013-05-15 22:08:00,69.0,60.0,-100.00,East,84,1.0,4.0,73,-99.99,,,0.00,0.000000,,2013-05-16 02:08:00,
2013-05-15 22:11:00,65.0,60.0,-100.00,ENE,74,0.0,2.0,84,0.00,,,0.00,0.000000,,2013-05-16 02:11:00,
2013-05-15 23:07:00,65.0,60.0,-100.00,ENE,74,0.0,2.0,84,0.00,,,0.00,0.000000,,2013-05-16 03:07:00,
2013-05-15 23:11:00,63.0,59.0,-100.00,East,88,0.0,2.0,88,0.00,,,0.00,0.000000,,2013-05-16 03:11:00,
2013-05-15 23:58:00,63.0,59.0,-100.00,East,88,0.0,2.0,88,0.00,,,0.00,0.000000,,2013-05-16 03:58:00,